Time,TemperatureF,DewpointF,PressureIn,WindDirection,WindDirectionDegrees,WindSpeedMPH,WindSpeedGustMPH,Humidity,HourlyPrecipIn,Conditions,Clouds,dailyrainin,SoftwareType,DateUTC
2013-01-31 00:00:00,56.6,54.6,29.44,SW,214,9.0,9.0,93,0.00,,,0.01,Wunderground v.1.15,2013-01-31 05:00:00,
2013-01-31 00:06:00,56.4,54.4,29.43,SW,225,8.0,23.0,93,0.00,,,0.02,Wunderground v.1.15,2013-01-31 05:06:00,
2013-01-31 00:08:00,56.4,54.4,29.42,NW,308,7.0,23.0,93,0.00,,,0.02,Wunderground v.1.15,2013-01-31 05:08:00,
2013-01-31 00:14:00,56.4,54.4,29.42,WNW,297,8.0,23.0,93,0.00,,,0.02,Wunderground v.1.15,2013-01-31 05:14:00,
2013-01-31 00:20:00,56.3,54.3,29.41,West,276,8.0,23.0,93,0.00,,,0.02,Wunderground v.1.15,2013-01-31 05:20:00,
2013-01-31 00:22:00,56.3,54.3,29.42,NW,316,8.0,25.0,93,0.00,,,0.02,Wunderground v.1.15,2013-01-31 05:22:00,
2013-01-31 00:28:00,56.4,54.1,29.41,SSW,211,8.0,25.0,92,0.00,,,0.02,Wunderground v.1.15,2013-01-31 05:28:00,
2013-01-31 00:34:00,56.5,54.2,29.40,NW,318,9.0,25.0,92,0.00,,,0.02,Wunderground v.1.15,2013-01-31 05:34:00,
2013-01-31 00:40:00,56.4,54.1,29.39,NW,319,8.0,8.0,92,0.00,,,0.02,Wunderground v.1.15,2013-01-31 05:40:00,
2013-01-31 00:46:00,56.5,54.2,29.39,NW,320,7.0,25.0,92,0.00,,,0.02,Wunderground v.1.15,2013-01-31 05:46:00,
2013-01-31 00:52:00,56.6,54.0,29.38,WSW,240,8.0,25.0,91,0.00,,,0.02,Wunderground v.1.15,2013-01-31 05:52:00,
2013-01-31 00:58:00,56.6,54.0,29.37,SW,226,9.0,25.0,91,0.00,,,0.02,Wunderground v.1.15,2013-01-31 05:58:00,
2013-01-31 01:04:00,56.6,54.0,29.37,SW,228,8.0,22.0,91,0.00,,,0.02,Wunderground v.1.15,2013-01-31 06:04:00,
2013-01-31 01:10:00,56.7,54.1,29.36,West,267,9.0,22.0,91,0.00,,,0.02,Wunderground v.1.15,2013-01-31 06:10:00,
2013-01-31 01:16:00,56.8,54.5,29.35,NW,306,8.0,22.0,92,0.00,,,0.02,Wunderground v.1.15,2013-01-31 06:16:00,
2013-01-31 01:22:00,56.9,54.6,29.35,WSW,239,9.0,29.0,92,0.00,,,0.02,Wunderground v.1.15,2013-01-31 06:22:00,
2013-01-31 01:28:00,57.0,54.4,29.34,West,281,8.0,29.0,91,0.00,,,0.02,Wunderground v.1.15,2013-01-31 06:28:00,
2013-01-31 01:34:00,57.2,54.9,29.33,WNW,287,9.0,29.0,92,0.00,,,0.02,Wunderground v.1.15,2013-01-31 06:34:00,
2013-01-31 01:40:00,57.4,55.1,29.32,SW,216,10.0,29.0,92,0.00,,,0.02,Wunderground v.1.15,2013-01-31 06:40:00,
2013-01-31 01:46:00,57.5,54.9,29.33,WSW,253,10.0,29.0,91,0.00,,,0.02,Wunderground v.1.15,2013-01-31 06:46:00,
2013-01-31 01:52:00,57.5,54.9,29.33,SW,222,9.0,27.0,91,0.00,,,0.02,Wunderground v.1.15,2013-01-31 06:52:00,
2013-01-31 01:58:00,57.6,55.0,29.32,SW,222,8.0,27.0,91,0.00,,,0.02,Wunderground v.1.15,2013-01-31 06:58:00,
2013-01-31 02:04:00,57.7,55.1,29.31,SW,229,9.0,27.0,91,0.00,,,0.02,Wunderground v.1.15,2013-01-31 07:04:00,
2013-01-31 02:10:00,57.9,55.3,29.30,WSW,256,9.0,9.0,91,0.00,,,0.02,Wunderground v.1.15,2013-01-31 07:10:00,
2013-01-31 02:16:00,57.8,55.2,29.30,WSW,237,9.0,27.0,91,0.00,,,0.02,Wunderground v.1.15,2013-01-31 07:16:00,
2013-01-31 02:22:00,57.9,55.3,29.29,South,185,9.0,27.0,91,0.00,,,0.02,Wunderground v.1.15,2013-01-31 07:22:00,
2013-01-31 02:28:00,58.1,55.5,29.28,West,260,9.0,27.0,91,0.00,,,0.02,Wunderground v.1.15,2013-01-31 07:28:00,
2013-01-31 02:34:00,58.2,55.6,29.27,West,263,10.0,24.0,91,0.00,,,0.02,Wunderground v.1.15,2013-01-31 07:34:00,
2013-01-31 02:40:00,58.2,55.6,29.26,SW,224,8.0,24.0,91,0.00,,,0.02,Wunderground v.1.15,2013-01-31 07:40:00,
2013-01-31 02:46:00,58.2,55.6,29.25,SW,218,9.0,24.0,91,0.00,,,0.02,Wunderground v.1.15,2013-01-31 07:46:00,
2013-01-31 02:52:00,58.4,55.8,29.24,West,272,10.0,30.0,91,0.00,,,0.00,Wunderground v.1.15,2013-01-31 07:52:00,
2013-01-31 02:58:00,58.7,55.8,29.23,WSW,247,11.0,30.0,90,0.00,,,0.00,Wunderground v.1.15,2013-01-31 07:58:00,
2013-01-31 03:04:00,58.7,55.8,29.23,West,260,10.0,30.0,90,0.00,,,0.00,Wunderground v.1.15,2013-01-31 08:04:00,
2013-01-31 03:10:00,58.5,55.6,29.22,SSW,206,10.0,10.0,90,0.00,,,0.00,Wunderground v.1.15,2013-01-31 08:10:00,
2013-01-31 03:16:00,58.4,55.8,29.20,WSW,241,10.0,30.0,91,0.00,,,0.00,Wunderground v.1.15,2013-01-31 08:16:00,
2013-01-31 03:22:00,58.4,55.8,29.20,West,264,10.0,30.0,91,0.00,,,0.00,Wunderground v.1.15,2013-01-31 08:22:00,
2013-01-31 03:28:00,58.3,55.7,29.20,WSW,252,10.0,30.0,91,0.00,,,0.00,Wunderground v.1.15,2013-01-31 08:28:00,
2013-01-31 03:34:00,58.2,55.6,29.18,WSW,255,10.0,26.0,91,0.00,,,0.00,Wunderground v.1.15,2013-01-31 08:34:00,
2013-01-31 03:40:00,58.2,55.6,29.18,WSW,239,10.0,26.0,91,0.00,,,0.00,Wunderground v.1.15,2013-01-31 08:40:00,
2013-01-31 03:46:00,58.3,56.0,29.16,SW,223,10.0,26.0,92,0.00,,,0.00,Wunderground v.1.15,2013-01-31 08:46:00,
2013-01-31 03:52:00,58.3,56.3,29.15,WNW,285,10.0,30.0,93,0.00,,,0.00,Wunderground v.1.15,2013-01-31 08:52:00,
2013-01-31 03:58:00,58.3,56.3,29.15,SW,233,9.0,30.0,93,0.00,,,0.01,Wunderground v.1.15,2013-01-31 08:58:00,
2013-01-31 04:04:00,58.3,56.3,29.14,WSW,258,11.0,30.0,93,0.00,,,0.01,Wunderground v.1.15,2013-01-31 09:04:00,
2013-01-31 04:10:00,58.3,56.3,29.14,SW,220,10.0,10.0,93,0.00,,,0.01,Wunderground v.1.15,2013-01-31 09:10:00,
2013-01-31 04:16:00,58.1,56.1,29.13,WSW,247,8.0,30.0,93,0.00,,,0.01,Wunderground v.1.15,2013-01-31 09:16:00,
2013-01-31 04:22:00,58.2,56.5,29.12,SW,215,10.0,41.0,94,0.00,,,0.02,Wunderground v.1.15,2013-01-31 09:22:00,
2013-01-31 04:28:00,58.1,56.4,29.11,SW,218,13.0,41.0,94,0.07,,,0.03,Wunderground v.1.15,2013-01-31 09:28:00,
2013-01-31 04:34:00,57.9,56.2,29.11,WSW,239,14.0,41.0,94,0.15,,,0.04,Wunderground v.1.15,2013-01-31 09:34:00,
2013-01-31 04:40:00,57.7,56.0,29.10,WSW,245,12.0,12.0,94,0.11,,,0.05,Wunderground v.1.15,2013-01-31 09:40:00,
2013-01-31 04:46:00,57.8,56.4,29.09,West,266,10.0,41.0,95,0.07,,,0.06,Wunderground v.1.15,2013-01-31 09:46:00,
2013-01-31 04:52:00,57.7,56.3,29.09,West,278,10.0,42.0,95,0.29,,,0.09,Wunderground v.1.15,2013-01-31 09:52:00,
2013-01-31 04:58:00,57.7,56.3,29.06,WSW,250,11.0,42.0,95,0.51,,,0.14,Wunderground v.1.15,2013-01-31 09:58:00,
2013-01-31 05:04:00,57.8,56.4,29.06,SW,231,13.0,19.0,95,0.56,,,0.19,Wunderground v.1.15,2013-01-31 10:04:00,
2013-01-31 05:10:00,57.9,56.8,29.04,WSW,242,14.0,42.0,96,0.24,,,0.23,Wunderground v.1.15,2013-01-31 10:10:00,
2013-01-31 05:16:00,57.9,56.8,29.04,West,267,13.0,42.0,96,0.61,,,0.27,Wunderground v.1.15,2013-01-31 10:16:00,
2013-01-31 05:22:00,58.0,56.9,29.05,WSW,257,13.0,25.0,96,0.52,,,0.33,Wunderground v.1.15,2013-01-31 10:22:00,
2013-01-31 05:28:00,58.2,57.1,29.06,WNW,290,15.0,41.0,96,0.19,,,0.35,Wunderground v.1.15,2013-01-31 10:28:00,
2013-01-31 05:34:00,57.9,56.5,29.08,West,272,11.0,41.0,95,0.36,,,0.37,Wunderground v.1.15,2013-01-31 10:34:00,
2013-01-31 05:40:00,57.5,56.1,29.10,NW,306,10.0,10.0,95,0.63,,,0.40,Wunderground v.1.15,2013-01-31 10:40:00,
2013-01-31 05:46:00,57.1,55.7,29.10,NNW,339,8.0,41.0,95,0.29,,,0.43,Wunderground v.1.15,2013-01-31 10:46:00,
2013-01-31 05:52:00,57.1,56.0,29.11,NNW,346,8.0,41.0,96,0.26,,,0.47,Wunderground v.1.15,2013-01-31 10:52:00,
2013-01-31 05:58:00,56.9,55.8,29.10,WNW,298,10.0,41.0,96,0.23,,,0.49,Wunderground v.1.15,2013-01-31 10:58:00,
2013-01-31 06:04:00,56.6,55.2,29.09,SSW,210,9.0,41.0,95,0.07,,,0.49,Wunderground v.1.15,2013-01-31 11:04:00,
2013-01-31 06:10:00,56.2,54.8,29.09,NW,314,7.0,7.0,95,0.04,,,0.49,Wunderground v.1.15,2013-01-31 11:10:00,
2013-01-31 06:16:00,55.8,54.4,29.08,WSW,254,6.0,41.0,95,0.04,,,0.50,Wunderground v.1.15,2013-01-31 11:16:00,
2013-01-31 06:22:00,55.5,54.1,29.07,SW,226,6.0,28.0,95,0.08,,,0.51,Wunderground v.1.15,2013-01-31 11:22:00,
2013-01-31 06:28:00,55.2,53.8,29.06,West,268,4.0,28.0,95,0.06,,,0.51,Wunderground v.1.15,2013-01-31 11:28:00,
2013-01-31 06:34:00,55.0,53.6,29.06,WSW,241,3.0,28.0,95,0.04,,,0.51,Wunderground v.1.15,2013-01-31 11:34:00,
2013-01-31 06:40:00,54.8,53.4,29.06,SW,232,4.0,28.0,95,0.00,,,0.51,Wunderground v.1.15,2013-01-31 11:40:00,
2013-01-31 06:46:00,54.8,53.4,29.06,WSW,246,5.0,28.0,95,0.00,,,0.52,Wunderground v.1.15,2013-01-31 11:46:00,
2013-01-31 06:52:00,54.6,53.2,29.05,SW,228,5.0,28.0,95,0.10,,,0.53,Wunderground v.1.15,2013-01-31 11:52:00,
2013-01-31 06:58:00,54.4,53.0,29.03,SW,224,6.0,28.0,95,0.05,,,0.54,Wunderground v.1.15,2013-01-31 11:58:00,
2013-01-31 07:04:00,54.1,52.7,29.03,West,276,6.0,18.0,95,0.05,,,0.54,Wunderground v.1.15,2013-01-31 12:04:00,
2013-01-31 07:10:00,54.0,52.9,29.02,SW,225,6.0,6.0,96,0.05,,,0.55,Wunderground v.1.15,2013-01-31 12:10:00,
2013-01-31 07:16:00,53.9,52.8,29.03,SW,217,4.0,18.0,96,0.05,,,0.55,Wunderground v.1.15,2013-01-31 12:16:00,
2013-01-31 07:22:00,53.8,52.7,29.03,SSW,206,5.0,7.0,96,0.04,,,0.55,Wunderground v.1.15,2013-01-31 12:22:00,
2013-01-31 07:28:00,53.8,52.7,29.03,West,265,5.0,17.0,96,0.00,,,0.55,Wunderground v.1.15,2013-01-31 12:28:00,
2013-01-31 07:34:00,53.6,52.5,29.04,SW,236,5.0,17.0,96,0.00,,,0.55,Wunderground v.1.15,2013-01-31 12:34:00,
2013-01-31 07:40:00,53.5,52.4,29.04,West,263,5.0,5.0,96,0.00,,,0.55,Wunderground v.1.15,2013-01-31 12:40:00,
2013-01-31 07:46:00,53.4,52.3,29.03,West,271,5.0,17.0,96,0.00,,,0.55,Wunderground v.1.15,2013-01-31 12:46:00,
2013-01-31 07:52:00,53.2,52.1,29.02,NNE,14,6.0,20.0,96,0.00,,,0.55,Wunderground v.1.15,2013-01-31 12:52:00,
2013-01-31 07:58:00,53.1,52.0,29.03,NNE,27,5.0,20.0,96,0.00,,,0.55,Wunderground v.1.15,2013-01-31 12:58:00,
2013-01-31 08:04:00,53.0,51.6,29.03,WSW,248,6.0,20.0,95,0.00,,,0.55,Wunderground v.1.15,2013-01-31 13:04:00,
2013-01-31 08:10:00,52.8,51.4,29.02,WSW,237,6.0,6.0,95,0.00,,,0.55,Wunderground v.1.15,2013-01-31 13:10:00,
2013-01-31 08:16:00,52.7,51.0,29.02,NNW,329,5.0,20.0,94,0.00,,,0.55,Wunderground v.1.15,2013-01-31 13:16:00,
2013-01-31 08:22:00,52.3,49.2,29.02,SW,236,10.0,27.0,89,0.00,,,0.55,Wunderground v.1.15,2013-01-31 13:22:00,
2013-01-31 08:28:00,52.0,47.6,29.04,NW,316,11.0,27.0,85,0.00,,,0.55,Wunderground v.1.15,2013-01-31 13:28:00,
2013-01-31 08:34:00,51.8,46.8,29.05,NW,319,10.0,27.0,83,0.00,,,0.55,Wunderground v.1.15,2013-01-31 13:34:00,
2013-01-31 08:40:00,52.1,46.1,29.06,WNW,290,11.0,11.0,80,0.00,,,0.55,Wunderground v.1.15,2013-01-31 13:40:00,
2013-01-31 08:46:00,53.3,46.3,29.06,NW,304,11.0,27.0,77,0.00,,,0.55,Wunderground v.1.15,2013-01-31 13:46:00,
2013-01-31 08:52:00,53.9,45.8,29.06,WNW,295,10.0,27.0,74,0.00,,,0.55,Wunderground v.1.15,2013-01-31 13:52:00,
2013-01-31 08:58:00,54.1,44.9,29.07,NNW,330,9.0,27.0,71,0.00,,,0.55,Wunderground v.1.15,2013-01-31 13:58:00,
2013-01-31 09:04:00,54.1,44.9,29.07,NNE,13,9.0,27.0,71,0.00,,,0.55,Wunderground v.1.15,2013-01-31 14:04:00,
2013-01-31 09:10:00,53.7,44.5,29.08,NNE,25,8.0,8.0,71,0.00,,,0.55,Wunderground v.1.15,2013-01-31 14:10:00,
2013-01-31 09:16:00,53.6,44.0,29.09,NNW,345,8.0,27.0,70,0.00,,,0.55,Wunderground v.1.15,2013-01-31 14:16:00,
2013-01-31 09:22:00,53.7,43.8,29.10,NNW,330,9.0,22.0,69,0.00,,,0.55,Wunderground v.1.15,2013-01-31 14:22:00,
2013-01-31 09:28:00,53.6,43.7,29.11,NNW,341,9.0,22.0,69,0.00,,,0.55,Wunderground v.1.15,2013-01-31 14:28:00,
2013-01-31 09:34:00,53.4,43.9,29.11,North,354,9.0,22.0,70,0.00,,,0.55,Wunderground v.1.15,2013-01-31 14:34:00,
2013-01-31 09:40:00,51.8,42.3,29.11,WSW,251,6.0,6.0,70,0.00,,,0.55,Wunderground v.1.15,2013-01-31 14:40:00,
2013-01-31 09:46:00,50.9,41.1,29.12,WNW,289,7.0,22.0,69,0.00,,,0.55,Wunderground v.1.15,2013-01-31 14:46:00,
2013-01-31 09:52:00,50.7,40.9,29.13,NW,322,6.0,25.0,69,0.00,,,0.55,Wunderground v.1.15,2013-01-31 14:52:00,
2013-01-31 09:58:00,50.5,40.7,29.13,West,268,7.0,25.0,69,0.00,,,0.55,Wunderground v.1.15,2013-01-31 14:58:00,
2013-01-31 10:04:00,50.6,40.0,29.14,NW,313,6.0,25.0,67,0.00,,,0.55,Wunderground v.1.15,2013-01-31 15:04:00,
2013-01-31 10:10:00,50.8,40.2,29.14,West,280,7.0,7.0,67,0.00,,,0.55,Wunderground v.1.15,2013-01-31 15:10:00,
2013-01-31 10:16:00,50.9,40.3,29.16,NW,318,8.0,25.0,67,0.00,,,0.55,Wunderground v.1.15,2013-01-31 15:16:00,
2013-01-31 10:22:00,50.8,40.6,29.17,NNW,338,8.0,25.0,68,0.00,,,0.55,Wunderground v.1.15,2013-01-31 15:22:00,
2013-01-31 10:28:00,50.8,40.6,29.18,NNE,16,6.0,25.0,68,0.00,,,0.55,Wunderground v.1.15,2013-01-31 15:28:00,
2013-01-31 10:34:00,50.1,39.2,29.19,NW,317,10.0,23.0,66,0.00,,,0.55,Wunderground v.1.15,2013-01-31 15:34:00,
2013-01-31 10:40:00,50.3,39.0,29.20,NNW,329,10.0,23.0,65,0.00,,,0.55,Wunderground v.1.15,2013-01-31 15:40:00,
2013-01-31 10:46:00,49.9,35.3,29.20,NW,320,12.0,23.0,57,0.00,,,0.56,Wunderground v.1.15,2013-01-31 15:46:00,
2013-01-31 10:52:00,49.6,33.6,29.21,NNE,20,13.0,32.0,54,0.00,,,0.56,Wunderground v.1.15,2013-01-31 15:52:00,
2013-01-31 10:58:00,50.0,33.5,29.20,NW,322,10.0,32.0,53,0.00,,,0.56,Wunderground v.1.15,2013-01-31 15:58:00,
2013-01-31 11:04:00,50.3,32.8,29.21,NW,312,8.0,32.0,51,0.00,,,0.56,Wunderground v.1.15,2013-01-31 16:04:00,
2013-01-31 11:10:00,50.2,31.2,29.21,NE,37,9.0,9.0,48,0.00,,,0.56,Wunderground v.1.15,2013-01-31 16:10:00,
2013-01-31 11:16:00,49.8,30.4,29.21,NNW,330,12.0,32.0,47,0.00,,,0.56,Wunderground v.1.15,2013-01-31 16:16:00,
2013-01-31 11:22:00,49.9,30.5,29.22,North,354,11.0,32.0,47,0.00,,,0.56,Wunderground v.1.15,2013-01-31 16:22:00,
2013-01-31 11:28:00,49.8,29.8,29.21,NW,305,10.0,32.0,46,0.00,,,0.56,Wunderground v.1.15,2013-01-31 16:28:00,
2013-01-31 11:34:00,49.8,30.9,29.22,WNW,290,10.0,24.0,48,0.00,,,0.56,Wunderground v.1.15,2013-01-31 16:34:00,
2013-01-31 11:40:00,49.6,30.7,29.22,WNW,299,10.0,10.0,48,0.00,,,0.56,Wunderground v.1.15,2013-01-31 16:40:00,
2013-01-31 11:46:00,49.5,31.1,29.22,NNW,341,10.0,24.0,49,0.00,,,0.56,Wunderground v.1.15,2013-01-31 16:46:00,
2013-01-31 11:52:00,49.6,31.2,29.23,NW,324,8.0,26.0,49,0.00,,,0.56,Wunderground v.1.15,2013-01-31 16:52:00,
2013-01-31 11:58:00,49.5,31.1,29.23,NW,322,9.0,26.0,49,0.00,,,0.56,Wunderground v.1.15,2013-01-31 16:58:00,
2013-01-31 12:04:00,49.1,30.7,29.23,NW,318,11.0,26.0,49,0.00,,,0.56,Wunderground v.1.15,2013-01-31 17:04:00,
2013-01-31 12:10:00,48.5,30.7,29.24,NNE,14,12.0,12.0,50,0.00,,,0.56,Wunderground v.1.15,2013-01-31 17:10:00,
2013-01-31 12:16:00,48.1,31.3,29.25,WNW,294,12.0,26.0,52,0.00,,,0.56,Wunderground v.1.15,2013-01-31 17:16:00,
2013-01-31 12:22:00,48.3,30.5,29.25,NW,325,11.0,30.0,50,0.00,,,0.56,Wunderground v.1.15,2013-01-31 17:22:00,
2013-01-31 12:28:00,48.7,28.3,29.25,NW,310,10.0,30.0,45,0.00,,,0.56,Wunderground v.1.15,2013-01-31 17:28:00,
2013-01-31 12:34:00,48.4,27.5,29.25,WNW,303,10.0,11.0,44,0.00,,,0.56,Wunderground v.1.15,2013-01-31 17:34:00,
2013-01-31 12:40:00,49.2,28.2,29.26,WNW,297,9.0,30.0,44,0.00,,,0.56,Wunderground v.1.15,2013-01-31 17:40:00,
2013-01-31 12:46:00,49.4,27.2,29.26,North,349,8.0,30.0,42,0.00,,,0.56,Wunderground v.1.15,2013-01-31 17:46:00,
2013-01-31 12:52:00,49.4,27.8,29.26,WNW,299,9.0,30.0,43,0.00,,,0.56,Wunderground v.1.15,2013-01-31 17:52:00,
2013-01-31 12:58:00,48.9,25.6,29.27,NW,324,10.0,30.0,40,0.00,,,0.56,Wunderground v.1.15,2013-01-31 17:58:00,
2013-01-31 13:04:00,48.6,25.9,29.26,NNW,329,10.0,29.0,41,0.00,,,0.56,Wunderground v.1.15,2013-01-31 18:04:00,
2013-01-31 13:10:00,48.9,25.6,29.27,NW,325,8.0,29.0,40,0.00,,,0.56,Wunderground v.1.15,2013-01-31 18:10:00,
2013-01-31 13:16:00,48.5,25.2,29.27,NE,45,9.0,29.0,40,0.00,,,0.56,Wunderground v.1.15,2013-01-31 18:16:00,
2013-01-31 13:22:00,48.1,25.5,29.27,NNE,12,10.0,29.0,41,0.00,,,0.56,Wunderground v.1.15,2013-01-31 18:22:00,
2013-01-31 13:28:00,48.3,26.2,29.28,WNW,284,9.0,29.0,42,0.00,,,0.56,Wunderground v.1.15,2013-01-31 18:28:00,
2013-01-31 13:34:00,48.1,26.1,29.28,NW,313,8.0,29.0,42,0.00,,,0.56,Wunderground v.1.15,2013-01-31 18:34:00,
2013-01-31 13:40:00,47.5,26.1,29.29,NNE,29,9.0,9.0,43,0.00,,,0.56,Wunderground v.1.15,2013-01-31 18:40:00,
2013-01-31 13:46:00,47.5,26.6,29.30,North,350,10.0,29.0,44,0.00,,,0.56,Wunderground v.1.15,2013-01-31 18:46:00,
2013-01-31 13:52:00,47.8,26.9,29.30,NNE,27,9.0,15.0,44,0.00,,,0.56,Wunderground v.1.15,2013-01-31 18:52:00,
2013-01-31 13:58:00,47.5,26.1,29.31,North,354,8.0,27.0,43,0.00,,,0.56,Wunderground v.1.15,2013-01-31 18:58:00,
2013-01-31 14:04:00,47.4,27.1,29.31,NNE,25,8.0,27.0,45,0.00,,,0.56,Wunderground v.1.15,2013-01-31 19:04:00,
2013-01-31 14:10:00,47.9,27.6,29.31,North,4,8.0,8.0,45,0.00,,,0.56,Wunderground v.1.15,2013-01-31 19:10:00,
2013-01-31 14:16:00,48.0,26.5,29.32,NNW,332,7.0,27.0,43,0.00,,,0.56,Wunderground v.1.15,2013-01-31 19:16:00,
2013-01-31 14:22:00,47.2,26.4,29.32,NW,317,9.0,27.0,44,0.00,,,0.56,Wunderground v.1.15,2013-01-31 19:22:00,
2013-01-31 14:28:00,46.6,21.0,29.32,NW,323,10.0,27.0,36,0.00,,,0.56,Wunderground v.1.15,2013-01-31 19:28:00,
2013-01-31 14:34:00,46.5,21.6,29.33,North,354,10.0,24.0,37,0.00,,,0.56,Wunderground v.1.15,2013-01-31 19:34:00,
2013-01-31 14:40:00,46.4,20.9,29.34,NNW,330,10.0,10.0,36,0.00,,,0.56,Wunderground v.1.15,2013-01-31 19:40:00,
2013-01-31 14:46:00,46.3,21.4,29.34,NW,314,10.0,24.0,37,0.00,,,0.56,Wunderground v.1.15,2013-01-31 19:46:00,
2013-01-31 14:52:00,46.1,21.2,29.34,North,354,7.0,30.0,37,0.00,,,0.56,Wunderground v.1.15,2013-01-31 19:52:00,
2013-01-31 14:58:00,45.1,20.3,29.35,ENE,61,8.0,30.0,37,0.00,,,0.56,Wunderground v.1.15,2013-01-31 19:58:00,
2013-01-31 15:04:00,44.9,20.8,29.35,WSW,241,9.0,30.0,38,0.00,,,0.56,Wunderground v.1.15,2013-01-31 20:04:00,
2013-01-31 15:10:00,44.9,20.8,29.36,NW,314,8.0,30.0,38,0.00,,,0.56,Wunderground v.1.15,2013-01-31 20:10:00,
2013-01-31 15:16:00,45.1,21.0,29.36,NNW,331,7.0,30.0,38,0.00,,,0.56,Wunderground v.1.15,2013-01-31 20:16:00,
2013-01-31 15:22:00,45.3,21.2,29.37,NW,311,8.0,11.0,38,0.00,,,0.56,Wunderground v.1.15,2013-01-31 20:22:00,
2013-01-31 15:28:00,45.7,21.5,29.37,WNW,283,8.0,20.0,38,0.00,,,0.56,Wunderground v.1.15,2013-01-31 20:28:00,
2013-01-31 15:34:00,45.7,20.9,29.37,NW,309,6.0,20.0,37,0.00,,,0.56,Wunderground v.1.15,2013-01-31 20:34:00,
2013-01-31 15:40:00,45.5,21.3,29.37,NNE,23,6.0,6.0,38,0.00,,,0.56,Wunderground v.1.15,2013-01-31 20:40:00,
2013-01-31 15:46:00,45.5,20.7,29.37,NW,318,5.0,20.0,37,0.00,,,0.56,Wunderground v.1.15,2013-01-31 20:46:00,
2013-01-31 15:52:00,45.4,20.6,29.37,NNW,328,6.0,6.0,37,0.00,,,0.56,Wunderground v.1.15,2013-01-31 20:52:00,
2013-01-31 15:58:00,45.8,22.2,29.37,WNW,302,4.0,18.0,39,0.00,,,0.56,Wunderground v.1.15,2013-01-31 20:58:00,
2013-01-31 16:04:00,45.2,24.6,29.37,West,273,3.0,18.0,44,0.00,,,0.56,Wunderground v.1.15,2013-01-31 21:04:00,
2013-01-31 16:10:00,44.3,25.3,29.37,WNW,284,5.0,18.0,47,0.00,,,0.56,Wunderground v.1.15,2013-01-31 21:10:00,
2013-01-31 16:16:00,43.8,25.9,29.38,NW,305,6.0,18.0,49,0.00,,,0.56,Wunderground v.1.15,2013-01-31 21:16:00,
2013-01-31 16:22:00,43.5,26.1,29.38,NW,314,5.0,7.0,50,0.00,,,0.56,Wunderground v.1.15,2013-01-31 21:22:00,
2013-01-31 16:28:00,43.5,25.6,29.39,WNW,298,5.0,15.0,49,0.00,,,0.56,Wunderground v.1.15,2013-01-31 21:28:00,
2013-01-31 16:34:00,43.5,25.6,29.39,WNW,302,6.0,10.0,49,0.00,,,0.56,Wunderground v.1.15,2013-01-31 21:34:00,
2013-01-31 16:40:00,43.4,25.0,29.39,North,9,5.0,15.0,48,0.00,,,0.56,Wunderground v.1.15,2013-01-31 21:40:00,
2013-01-31 16:46:00,43.7,21.5,29.40,North,4,5.0,15.0,41,0.00,,,0.56,Wunderground v.1.15,2013-01-31 21:46:00,
2013-01-31 16:52:00,43.8,20.4,29.40,NNE,21,6.0,7.0,39,0.00,,,0.56,Wunderground v.1.15,2013-01-31 21:52:00,
2013-01-31 16:58:00,43.7,19.1,29.41,NNW,346,5.0,17.0,37,0.00,,,0.56,Wunderground v.1.15,2013-01-31 21:58:00,
2013-01-31 17:04:00,43.4,18.2,29.42,NW,304,8.0,20.0,36,0.00,,,0.56,Wunderground v.1.15,2013-01-31 22:04:00,
2013-01-31 17:10:00,43.1,17.9,29.42,NNE,33,9.0,9.0,36,0.00,,,0.56,Wunderground v.1.15,2013-01-31 22:10:00,
2013-01-31 17:16:00,42.9,18.4,29.42,NW,322,8.0,17.0,37,0.00,,,0.56,Wunderground v.1.15,2013-01-31 22:16:00,
2013-01-31 17:22:00,42.8,18.9,29.43,North,8,5.0,24.0,38,0.00,,,0.56,Wunderground v.1.15,2013-01-31 22:22:00,
2013-01-31 17:28:00,42.5,19.3,29.44,WNW,293,5.0,24.0,39,0.00,,,0.56,Wunderground v.1.15,2013-01-31 22:28:00,
2013-01-31 17:34:00,42.3,19.7,29.44,North,354,5.0,24.0,40,0.00,,,0.56,Wunderground v.1.15,2013-01-31 22:34:00,
2013-01-31 17:40:00,42.1,19.5,29.44,NNW,330,5.0,5.0,40,0.00,,,0.56,Wunderground v.1.15,2013-01-31 22:40:00,
2013-01-31 17:46:00,42.0,20.0,29.45,WNW,298,5.0,24.0,41,0.00,,,0.56,Wunderground v.1.15,2013-01-31 22:46:00,
2013-01-31 17:52:00,41.8,19.2,29.46,NW,312,5.0,17.0,40,0.00,,,0.56,Wunderground v.1.15,2013-01-31 22:52:00,
2013-01-31 17:58:00,41.7,19.1,29.47,NNW,341,5.0,17.0,40,0.00,,,0.56,Wunderground v.1.15,2013-01-31 22:58:00,
2013-01-31 18:04:00,41.5,18.9,29.47,NNW,332,5.0,17.0,40,0.00,,,0.56,Wunderground v.1.15,2013-01-31 23:04:00,
2013-01-31 18:10:00,41.3,19.3,29.48,NNW,337,5.0,17.0,41,0.00,,,0.56,Wunderground v.1.15,2013-01-31 23:10:00,
2013-01-31 18:16:00,41.0,18.5,29.48,NE,39,8.0,17.0,40,0.00,,,0.56,Wunderground v.1.15,2013-01-31 23:16:00,
2013-01-31 18:22:00,40.6,18.7,29.48,NNE,24,9.0,9.0,41,0.00,,,0.56,Wunderground v.1.15,2013-01-31 23:22:00,
2013-01-31 18:28:00,40.1,18.8,29.49,NW,314,10.0,26.0,42,0.00,,,0.56,Wunderground v.1.15,2013-01-31 23:28:00,
2013-01-31 18:34:00,39.9,18.6,29.50,North,4,10.0,26.0,42,0.00,,,0.56,Wunderground v.1.15,2013-01-31 23:34:00,
2013-01-31 18:40:00,39.6,18.9,29.50,NNW,330,8.0,8.0,43,0.00,,,0.56,Wunderground v.1.15,2013-01-31 23:40:00,
2013-01-31 18:46:00,39.3,18.6,29.51,NW,314,9.0,26.0,43,0.00,,,0.56,Wunderground v.1.15,2013-01-31 23:46:00,
2013-01-31 18:52:00,39.1,19.0,29.52,NNW,333,7.0,26.0,44,0.00,,,0.56,Wunderground v.1.15,2013-01-31 23:52:00,
2013-01-31 18:58:00,38.9,18.8,29.52,NW,320,6.0,26.0,44,0.00,,,0.56,Wunderground v.1.15,2013-01-31 23:58:00,
2013-01-31 19:04:00,38.7,18.6,29.53,NW,323,8.0,26.0,44,0.00,,,0.56,Wunderground v.1.15,2013-02-01 00:04:00,
2013-01-31 19:10:00,38.4,17.8,29.53,North,354,9.0,26.0,43,0.00,,,0.56,Wunderground v.1.15,2013-02-01 00:10:00,
2013-01-31 19:16:00,38.3,18.3,29.54,WNW,293,8.0,26.0,44,0.00,,,0.56,Wunderground v.1.15,2013-02-01 00:16:00,
2013-01-31 19:22:00,38.1,18.1,29.54,NW,322,7.0,26.0,44,0.00,,,0.56,Wunderground v.1.15,2013-02-01 00:22:00,
2013-01-31 19:28:00,37.8,17.3,29.54,NW,323,6.0,26.0,43,0.00,,,0.56,Wunderground v.1.15,2013-02-01 00:28:00,
2013-01-31 19:34:00,37.7,17.2,29.55,NNE,27,8.0,23.0,43,0.00,,,0.56,Wunderground v.1.15,2013-02-01 00:34:00,
2013-01-31 19:40:00,37.6,17.1,29.55,ENE,64,9.0,9.0,43,0.00,,,0.56,Wunderground v.1.15,2013-02-01 00:40:00,
2013-01-31 19:46:00,37.3,16.8,29.55,NW,318,10.0,23.0,43,0.00,,,0.56,Wunderground v.1.15,2013-02-01 00:46:00,
2013-01-31 19:52:00,37.2,17.3,29.56,NNW,337,9.0,28.0,44,0.00,,,0.56,Wunderground v.1.15,2013-02-01 00:52:00,
2013-01-31 19:58:00,37.1,17.2,29.56,North,4,7.0,28.0,44,0.00,,,0.56,Wunderground v.1.15,2013-02-01 00:58:00,
2013-01-31 20:04:00,36.9,17.0,29.57,NNE,14,7.0,28.0,44,0.00,,,0.56,Wunderground v.1.15,2013-02-01 01:04:00,
2013-01-31 20:10:00,36.7,16.8,29.57,West,280,6.0,6.0,44,0.00,,,0.56,Wunderground v.1.15,2013-02-01 01:10:00,
2013-01-31 20:16:00,36.6,17.2,29.57,NW,318,5.0,28.0,45,0.00,,,0.56,Wunderground v.1.15,2013-02-01 01:16:00,
2013-01-31 20:22:00,36.5,16.6,29.57,North,359,5.0,28.0,44,0.00,,,0.56,Wunderground v.1.15,2013-02-01 01:22:00,
2013-01-31 20:28:00,36.4,16.5,29.57,West,263,5.0,28.0,44,0.00,,,0.56,Wunderground v.1.15,2013-02-01 01:28:00,
2013-01-31 20:34:00,36.4,16.0,29.57,NW,310,6.0,22.0,43,0.00,,,0.56,Wunderground v.1.15,2013-02-01 01:34:00,
2013-01-31 20:40:00,36.1,15.7,29.58,NNW,329,8.0,22.0,43,0.00,,,0.56,Wunderground v.1.15,2013-02-01 01:40:00,
2013-01-31 20:46:00,35.9,15.5,29.58,NNW,327,8.0,22.0,43,0.00,,,0.56,Wunderground v.1.15,2013-02-01 01:46:00,
2013-01-31 20:52:00,35.6,15.3,29.59,WNW,291,8.0,24.0,43,0.00,,,0.56,Wunderground v.1.15,2013-02-01 01:52:00,
2013-01-31 20:58:00,35.4,15.1,29.59,NNW,346,6.0,24.0,43,0.00,,,0.56,Wunderground v.1.15,2013-02-01 01:58:00,
2013-01-31 21:04:00,35.1,14.8,29.60,NW,324,6.0,24.0,43,0.00,,,0.56,Wunderground v.1.15,2013-02-01 02:04:00,
2013-01-31 21:10:00,35.0,14.2,29.60,NNE,12,8.0,8.0,42,0.00,,,0.56,Wunderground v.1.15,2013-02-01 02:10:00,
2013-01-31 21:16:00,34.7,13.9,29.60,North,354,6.0,24.0,42,0.00,,,0.56,Wunderground v.1.15,2013-02-01 02:16:00,
2013-01-31 21:22:00,34.6,11.6,29.60,WSW,237,9.0,25.0,38,0.00,,,0.56,Wunderground v.1.15,2013-02-01 02:22:00,
2013-01-31 21:28:00,34.5,12.6,29.60,NW,308,7.0,25.0,40,0.00,,,0.56,Wunderground v.1.15,2013-02-01 02:28:00,
2013-01-31 21:34:00,34.3,11.9,29.60,NW,314,6.0,9.0,39,0.00,,,0.56,Wunderground v.1.15,2013-02-01 02:34:00,
2013-01-31 21:40:00,34.1,12.3,29.61,WNW,285,6.0,6.0,40,0.00,,,0.56,Wunderground v.1.15,2013-02-01 02:40:00,
2013-01-31 21:46:00,34.0,12.2,29.61,NW,310,5.0,25.0,40,0.00,,,0.56,Wunderground v.1.15,2013-02-01 02:46:00,
2013-01-31 21:52:00,34.0,12.2,29.61,NNE,15,6.0,30.0,40,0.00,,,0.56,Wunderground v.1.15,2013-02-01 02:52:00,
2013-01-31 21:58:00,33.8,12.6,29.61,NW,314,6.0,30.0,41,0.00,,,0.56,Wunderground v.1.15,2013-02-01 02:58:00,
2013-01-31 22:04:00,33.7,11.9,29.62,NW,316,6.0,30.0,40,0.00,,,0.56,Wunderground v.1.15,2013-02-01 03:04:00,
2013-01-31 22:10:00,33.6,12.4,29.62,WNW,289,7.0,7.0,41,0.00,,,0.56,Wunderground v.1.15,2013-02-01 03:10:00,
2013-01-31 22:16:00,33.6,12.4,29.62,West,281,7.0,30.0,41,0.00,,,0.56,Wunderground v.1.15,2013-02-01 03:16:00,
2013-01-31 22:22:00,33.4,13.3,29.62,NNW,334,6.0,21.0,43,0.00,,,0.56,Wunderground v.1.15,2013-02-01 03:22:00,
2013-01-31 22:28:00,33.2,14.1,29.62,NNW,328,6.0,21.0,45,0.00,,,0.56,Wunderground v.1.15,2013-02-01 03:28:00,
2013-01-31 22:34:00,33.0,14.4,29.62,North,8,7.0,21.0,46,0.00,,,0.56,Wunderground v.1.15,2013-02-01 03:34:00,
2013-01-31 22:40:00,32.8,14.8,29.62,NNW,340,7.0,7.0,47,0.00,,,0.56,Wunderground v.1.15,2013-02-01 03:40:00,
2013-01-31 22:46:00,32.7,15.1,29.62,NNW,348,6.0,21.0,48,0.00,,,0.56,Wunderground v.1.15,2013-02-01 03:46:00,
2013-01-31 22:52:00,32.6,15.1,29.63,WNW,296,6.0,11.0,48,0.00,,,0.56,Wunderground v.1.15,2013-02-01 03:52:00,
2013-01-31 22:58:00,32.6,15.5,29.63,NW,324,7.0,18.0,49,0.00,,,0.56,Wunderground v.1.15,2013-02-01 03:58:00,
2013-01-31 23:04:00,32.5,15.9,29.63,NNW,330,5.0,18.0,50,0.00,,,0.56,Wunderground v.1.15,2013-02-01 04:04:00,
2013-01-31 23:10:00,32.4,15.8,29.63,North,354,4.0,4.0,50,0.00,,,0.56,Wunderground v.1.15,2013-02-01 04:10:00,
2013-01-31 23:16:00,32.3,16.2,29.63,West,279,4.0,18.0,51,0.00,,,0.56,Wunderground v.1.15,2013-02-01 04:16:00,
2013-01-31 23:22:00,32.1,16.0,29.63,NW,322,5.0,19.0,51,0.00,,,0.56,Wunderground v.1.15,2013-02-01 04:22:00,
2013-01-31 23:28:00,32.0,16.3,29.63,NNW,328,6.0,19.0,52,0.00,,,0.56,Wunderground v.1.15,2013-02-01 04:28:00,
2013-01-31 23:34:00,31.7,16.5,29.64,WNW,303,4.0,19.0,53,0.00,,,0.56,Wunderground v.1.15,2013-02-01 04:34:00,
2013-01-31 23:40:00,31.6,16.8,29.64,WNW,289,5.0,19.0,54,0.00,,,0.56,Wunderground v.1.15,2013-02-01 04:40:00,
2013-01-31 23:46:00,31.5,16.7,29.64,WNW,287,6.0,19.0,54,0.00,,,0.56,Wunderground v.1.15,2013-02-01 04:46:00,
2013-01-31 23:52:00,31.4,16.7,29.64,NW,319,6.0,6.0,54,0.00,,,0.56,Wunderground v.1.15,2013-02-01 04:52:00,
2013-01-31 23:58:00,31.4,16.7,29.65,NW,316,7.0,15.0,54,0.00,,,0.56,Wunderground v.1.15,2013-02-01 04:58:00,